When you browse on this site, cookies collect data to enhance your experience and personalize the content and advertising you see.
Visit our Privacy Policy to learn more. By continuing to use the site, you agree to this use of cookies and data.
  • In Belgium
  • List of Countries
  • For 7 days
  • Water Temperature
  • Weather Map
  • Weather Widgets
  • user-avatar
    Login

    Hourly Weather Koptyazhiha

    Today, 17 August, Saturday

    Time Temperature Precipitation Wind Pressure Humidity
    00:00 +12°C° 0 mm 1 mps 748 mmHg 90%
    01:00 +12°C° 0 mm 1 mps 749 mmHg 91%
    02:00 +11°C° 0 mm 1 mps 749 mmHg 90%
    03:00 +11°C° 0 mm 1 mps 749 mmHg 90%
    04:00 +11°C° 0 mm 1 mps 749 mmHg 89%
    05:00 +10°C° 0 mm 2 mps 749 mmHg 89%
    06:00 +13°C° 0 mm 2 mps 749 mmHg 83%
    07:00 +14°C° 0 mm 2 mps 749 mmHg 77%
    08:00 +16°C° 0 mm 2 mps 749 mmHg 71%
    09:00 +18°C° 0 mm 2 mps 749 mmHg 66%
    10:00 +19°C° 0 mm 2 mps 749 mmHg 61%
    11:00 +21°C° 0 mm 3 mps 749 mmHg 55%
    12:00 +21°C° 0 mm 3 mps 749 mmHg 54%
    13:00 +21°C° 0 mm 3 mps 749 mmHg 53%
    14:00 +22°C° 0 mm 3 mps 749 mmHg 52%
    15:00 +21°C° 0 mm 3 mps 748 mmHg 57%
    16:00 +21°C° 0 mm 2 mps 748 mmHg 61%
    17:00 +20°C° 0 mm 2 mps 748 mmHg 66%
    18:00 +18°C° 0 mm 2 mps 748 mmHg 71%
    19:00 +17°C° 0 mm 2 mps 748 mmHg 76%
    20:00 +15°C° 0 mm 2 mps 747 mmHg 82%
    21:00 +15°C° 0 mm 2 mps 747 mmHg 82%
    22:00 +15°C° 0 mm 2 mps 747 mmHg 82%
    23:00 +13°C° 0 mm 3 mps 746 mmHg 83%

    Tomorrow, 18 August, Sunday

    Time Temperature Precipitation Wind Pressure Humidity
    00:00 +13°C° 0 mm 3 mps 746 mmHg 83%
    01:00 +13°C° 0 mm 3 mps 746 mmHg 84%
    02:00 +13°C° 0 mm 3 mps 745 mmHg 84%
    03:00 +13°C° 0.1 mm 3 mps 745 mmHg 86%
    04:00 +12°C° 0.1 mm 3 mps 745 mmHg 87%
    05:00 +12°C° 0.1 mm 4 mps 744 mmHg 88%
    06:00 +12°C° 0.7 mm 4 mps 744 mmHg 91%
    07:00 +12°C° 0.7 mm 4 mps 744 mmHg 94%
    08:00 +12°C° 0.7 mm 4 mps 743 mmHg 96%
    09:00 +12°C° 0.7 mm 4 mps 743 mmHg 97%
    10:00 +13°C° 0.7 mm 4 mps 743 mmHg 97%
    11:00 +13°C° 0.7 mm 4 mps 743 mmHg 97%
    12:00 +13°C° 1.1 mm 4 mps 743 mmHg 97%
    13:00 +13°C° 1.1 mm 4 mps 742 mmHg 97%
    14:00 +13°C° 1.1 mm 4 mps 742 mmHg 98%
    15:00 +13°C° 0.7 mm 4 mps 743 mmHg 98%
    16:00 +13°C° 0.7 mm 3 mps 743 mmHg 98%
    17:00 +13°C° 0.7 mm 3 mps 743 mmHg 98%
    18:00 +13°C° 0.1 mm 3 mps 743 mmHg 98%
    19:00 +13°C° 0.1 mm 3 mps 743 mmHg 98%
    20:00 +13°C° 0.1 mm 3 mps 743 mmHg 98%
    21:00 +13°C° 0 mm 3 mps 744 mmHg 98%
    22:00 +13°C° 0 mm 3 mps 744 mmHg 98%
    23:00 +13°C° 0 mm 3 mps 744 mmHg 97%

    Day after tomorrow, 19 August, Monday

    Time Temperature Precipitation Wind Pressure Humidity
    00:00 +12°C° 0 mm 3 mps 744 mmHg 97%
    01:00 +12°C° 0 mm 3 mps 745 mmHg 97%
    02:00 +12°C° 0 mm 3 mps 745 mmHg 97%
    03:00 +12°C° 0 mm 2 mps 745 mmHg 97%
    04:00 +12°C° 0 mm 2 mps 745 mmHg 97%
    05:00 +10°C° 0 mm 2 mps 746 mmHg 98%
    06:00 +13°C° 0 mm 2 mps 746 mmHg 93%
    07:00 +15°C° 0 mm 2 mps 747 mmHg 89%
    08:00 +17°C° 0 mm 2 mps 747 mmHg 84%
    09:00 +19°C° 0 mm 2 mps 747 mmHg 75%
    10:00 +20°C° 0 mm 3 mps 747 mmHg 65%
    11:00 +22°C° 0 mm 3 mps 748 mmHg 55%
    12:00 +24°C° 0 mm 3 mps 748 mmHg 55%
    13:00 +25°C° 0 mm 3 mps 748 mmHg 55%
    14:00 +26°C° 0 mm 3 mps 748 mmHg 55%
    15:00 +25°C° 0 mm 3 mps 748 mmHg 61%
    16:00 +25°C° 0 mm 2 mps 748 mmHg 66%
    17:00 +24°C° 0 mm 2 mps 748 mmHg 72%
    18:00 +23°C° 0 mm 2 mps 749 mmHg 78%
    19:00 +20°C° 0 mm 2 mps 749 mmHg 83%
    20:00 +19°C° 0 mm 2 mps 749 mmHg 89%
    21:00 +18°C° 0 mm 2 mps 749 mmHg 90%
    22:00 +18°C° 0 mm 2 mps 749 mmHg 91%
    23:00 +18°C° 0 mm 2 mps 749 mmHg 92%

    20 August, Tuesday

    Time Temperature Precipitation Wind Pressure Humidity
    00:00 +17°C° 0 mm 2 mps 749 mmHg 94%
    01:00 +17°C° 0 mm 2 mps 750 mmHg 95%
    02:00 +17°C° 0 mm 2 mps 750 mmHg 96%
    03:00 +17°C° 0 mm 2 mps 750 mmHg 97%
    04:00 +17°C° 0 mm 2 mps 750 mmHg 97%
    05:00 +16°C° 0 mm 2 mps 750 mmHg 98%
    06:00 +17°C° 0.2 mm 2 mps 750 mmHg 96%
    07:00 +19°C° 0.2 mm 2 mps 750 mmHg 94%
    08:00 +20°C° 0.2 mm 2 mps 751 mmHg 92%
    09:00 +20°C° 0 mm 2 mps 751 mmHg 89%
    10:00 +21°C° 0 mm 2 mps 751 mmHg 86%
    11:00 +23°C° 0 mm 2 mps 751 mmHg 83%
    12:00 +21°C° 0.4 mm 2 mps 751 mmHg 87%
    13:00 +21°C° 0.4 mm 2 mps 751 mmHg 90%
    14:00 +21°C° 0.4 mm 1 mps 751 mmHg 93%
    15:00 +21°C° 0 mm 1 mps 751 mmHg 91%
    16:00 +21°C° 0 mm 1 mps 751 mmHg 89%
    17:00 +20°C° 0 mm 0 mps 751 mmHg 87%
    18:00 +18°C° 0 mm 0 mps 751 mmHg 90%
    19:00 +17°C° 0 mm 0 mps 751 mmHg 93%
    20:00 +16°C° 0 mm 0 mps 751 mmHg 96%
    21:00 +16°C° 0 mm 0 mps 751 mmHg 96%
    22:00 +15°C° 0 mm 0 mps 751 mmHg 96%
    23:00 +15°C° 0 mm 0 mps 751 mmHg 96%

    21 August, Wednesday

    Time Temperature Precipitation Wind Pressure Humidity
    00:00 +15°C° 0 mm 0 mps 752 mmHg 96%
    01:00 +14°C° 0 mm 0 mps 752 mmHg 96%
    02:00 +14°C° 0 mm 0 mps 752 mmHg 96%
    03:00 +14°C° 0 mm 0 mps 752 mmHg 96%
    04:00 +15°C° 0 mm 1 mps 752 mmHg 96%
    05:00 +15°C° 0 mm 1 mps 752 mmHg 96%
    06:00 +16°C° 0 mm 1 mps 752 mmHg 91%
    07:00 +19°C° 0 mm 1 mps 752 mmHg 87%
    08:00 +21°C° 0 mm 1 mps 752 mmHg 82%
    09:00 +22°C° 0 mm 1 mps 752 mmHg 76%
    10:00 +23°C° 0 mm 1 mps 752 mmHg 70%
    11:00 +25°C° 0 mm 1 mps 752 mmHg 64%
    12:00 +25°C° 0 mm 1 mps 752 mmHg 66%
    13:00 +25°C° 0 mm 2 mps 751 mmHg 68%
    14:00 +25°C° 0 mm 2 mps 751 mmHg 69%
    15:00 +24°C° 0.1 mm 2 mps 751 mmHg 74%
    16:00 +24°C° 0.1 mm 2 mps 750 mmHg 79%
    17:00 +23°C° 0.1 mm 2 mps 750 mmHg 84%
    18:00 +21°C° 0.1 mm 2 mps 750 mmHg 89%
    19:00 +20°C° 0.1 mm 2 mps 749 mmHg 93%
    20:00 +19°C° 0.1 mm 2 mps 749 mmHg 98%
    21:00 +19°C° 0.5 mm 2 mps 748 mmHg 97%
    22:00 +19°C° 0.5 mm 3 mps 748 mmHg 97%
    23:00 +19°C° 0.5 mm 3 mps 747 mmHg 97%

    22 August, Thursday

    Time Temperature Precipitation Wind Pressure Humidity
    00:00 +19°C° 0.2 mm 3 mps 747 mmHg 97%
    01:00 +19°C° 0.2 mm 3 mps 746 mmHg 96%
    02:00 +20°C° 0.2 mm 4 mps 746 mmHg 95%
    03:00 +19°C° 0 mm 4 mps 746 mmHg 96%
    04:00 +19°C° 0 mm 4 mps 746 mmHg 96%
    05:00 +18°C° 0 mm 4 mps 746 mmHg 96%
    06:00 +18°C° 0.1 mm 4 mps 746 mmHg 95%
    07:00 +17°C° 0.1 mm 4 mps 747 mmHg 94%
    08:00 +16°C° 0.1 mm 5 mps 747 mmHg 93%
    09:00 +15°C° 0 mm 5 mps 748 mmHg 89%
    10:00 +15°C° 0 mm 4 mps 749 mmHg 85%
    11:00 +15°C° 0 mm 4 mps 750 mmHg 81%
    12:00 +17°C° 0 mm 4 mps 750 mmHg 74%
    13:00 +19°C° 0 mm 4 mps 750 mmHg 66%
    14:00 +20°C° 0 mm 4 mps 751 mmHg 59%
    15:00 +20°C° 0 mm 3 mps 751 mmHg 61%
    16:00 +20°C° 0 mm 3 mps 751 mmHg 64%
    17:00 +20°C° 0 mm 2 mps 751 mmHg 66%
    18:00 +18°C° 0 mm 2 mps 751 mmHg 71%
    19:00 +16°C° 0 mm 2 mps 751 mmHg 76%
    20:00 +14°C° 0 mm 2 mps 751 mmHg 81%
    21:00 +14°C° 0 mm 2 mps 752 mmHg 84%
    22:00 +13°C° 0 mm 2 mps 752 mmHg 88%
    23:00 +13°C° 0 mm 2 mps 752 mmHg 91%
    Show more